Location: Gull Harbor
(47.1000°N, 122.9000°W)
Time: 06:02:26
(UTC-08:00)

Envisat - Pass Details

Date: 26 October 2019
Orbit: 764 x 766 km, 98.1° (Epoch: 19 November)

Event Time Altitude Azimuth Distance (km) Brightness Sun altitude
Rises 18:28:23 0° 145° (SE) 3,222 6.0 -4.7°
Reaches altitude 10° 18:30:46 10° 139° (SE) 2,300 5.2 -5.1°
Maximum altitude 18:35:33 43° 68° (ENE) 1,066 3.3 -5.9°
Drops below altitude 10° 18:40:21 10° 358° (N) 2,315 5.4 -6.7°
Sets 18:42:45 0° 352° (N) 3,245 6.2 -7.1°
